Location: *
(46.1200°N, 11.2700°E)
Time: 04:13:35
(UTC+00:00)

Meteor 1-25 Rocket - Pass Details

Date: 02 March 2021
Orbit: 835 x 893 km, 81.2° (Epoch: 13 April)

Event Time Altitude Azimuth Distance (km) Brightness Sun altitude
Rises 17:37:37 0° 180° (S) 3,475 7.4 -6.8°
Reaches altitude 10° 17:40:04 10° 177° (S) 2,533 6.7 -7.2°
Maximum altitude 17:45:46 66° 97° (E) 952 4.3 -8.2°
Drops below altitude 10° 17:51:26 10° 16° (NNE) 2,514 6.5 -9.2°
Sets 17:53:52 0° 14° (NNE) 3,446 7.2 -9.6°
